Location: Seoul
(37.5670°N, 127.0000°E)
Time: 13:22:12
(UTC+09:00)

ISS - Visible Passes

Search period start: 24 June 2024 00:00
Search period end: 04 July 2024 00:00
Orbit: 410 x 425 km, 51.6° (Epoch: 23 June)

Date Brightness Start Highest point End Pass type
(mag) Time Alt. Az. Time Alt. Az. Time Alt. Az.
24 Jun -3.7 03:50:27 26° WSW 03:52:10 70° NW 03:55:30 10° NE visible
25 Jun -3.7 03:04:09 62° SE 03:04:09 62° SE 03:07:24 10° NE visible
25 Jun -1.5 04:38:44 10° WNW 04:41:08 18° NNW 04:43:32 10° NNE visible
26 Jun -1.5 02:17:46 20° E 02:17:46 20° E 02:19:05 10° ENE visible
26 Jun -2.1 03:50:40 14° W 03:52:51 26° NNW 03:55:43 10° NNE visible
27 Jun -2.9 03:04:12 39° NW 03:04:36 41° NW 03:07:47 10° NE visible
27 Jun -0.9 04:41:14 10° NNW 04:42:04 11° NNW 04:42:55 10° N visible
28 Jun -2.1 02:17:40 34° NE 02:17:40 34° NE 02:19:42 10° NE visible
28 Jun -1.1 03:51:49 10° NW 03:53:37 14° NNW 03:55:26 10° NNE visible
29 Jun -0.7 01:31:03 13° ENE 01:31:03 13° ENE 01:31:28 10° ENE visible
29 Jun -1.5 03:03:56 16° NW 03:05:11 19° NNW 03:07:38 10° NNE visible
30 Jun -1.8 02:17:15 26° NNW 02:17:15 26° NNW 02:19:41 10° NNE visible
01 Jul -1.0 01:30:29 19° NNE 01:30:29 19° NNE 01:31:36 10° NE visible
01 Jul -0.7 03:04:54 10° NNW 03:05:51 11° NNW 03:06:48 10° N visible
02 Jul -1.0 02:16:31 13° NW 02:17:16 14° NNW 02:19:10 10° NNE visible
03 Jul -0.9 01:29:35 18° N 01:29:35 18° N 01:31:13 10° NNE visible
